Dallas/Ft Worth, TX

9:25 PM CST on November 13, 2019 (GMT -0600)
Dallas-Fort Worth International

Weather History for KDFW - September, 2019

Change the Weather History Date:

Friday, September 6, 2019

  Actual Average Record
Temperature  
Mean Temperature 87 °F 81 °F  
Max Temperature 100 °F 92 °F 104 °F (2012)
Min Temperature 74 °F 71 °F 55 °F (1974)
Degree Days  
Heating Degree Days 0 0  
Month to date heating degree days 0 0  
Since 1 July heating degree days 0 0  
Cooling Degree Days 22 16  
Month to date cooling degree days 127 103  
Year to date cooling degree days 2329 2285  
Growing Degree Days 37 (Base 50)    
Moisture  
Dew Point 63 °F    
Average Humidity 46    
Maximum Humidity 71    
Minimum Humidity 28    
Precipitation  
Precipitation 0.00 in 0.10 in 2.34 in (1942)
Month to date precipitation 0.00 0.57  
Year to date precipitation 27.13 24.68  
Sea Level Pressure  
Sea Level Pressure 29.98 in    
Wind  
Wind Speed 3 mph ()    
Max Wind Speed 14 mph    
Max Gust Speed 16 mph    
Visibility 10.0 miles    
Events      
T = Trace of Precipitation, MM = Missing Value Source: Averaged Metar Reports

Daily Weather History Graph

Daily Weather History Graph

Search for Another Location

Airport or City:

Astronomy

Sep. 06, 2019 Rise Set
Actual Time 7:05 AM CDT 7:46 PM CDT
Civil Twilight 6:40 AM CDT 8:11 PM CDT
Nautical Twilight 6:11 AM CDT 8:41 PM CDT
Astronomical Twilight 5:41 AM CDT 9:11 PM CDT
Moon 2:51 PM CDT (9/6) 12:27 AM CDT (9/6)
Length of Visible Light 13h 30m
Length of Day
12h 40m
First Quarter, 56% of the Moon is Illuminated
Sep 6
First Quarter
Sep 13
Full
Sep 21
Last Quarter
Sep 28
New
Oct 5
First Quarter

Hourly Weather History & Observations

Time (CDT) Temp. Heat Index Dew Point Humidity Pressure Visibility Wind Dir Wind Speed Gust Speed Precip Events Conditions
12:53 AM 82.0 °F 83.4 °F 64.0 °F 54% 30.00 in 10.0 mi Calm Calm - N/A   Clear
1:53 AM 82.0 °F 83.4 °F 64.0 °F 54% 30.00 in 10.0 mi East 4.6 mph - N/A   Clear
2:53 AM 81.0 °F 82.7 °F 64.9 °F 58% 29.99 in 10.0 mi Calm Calm - N/A   Clear
3:53 AM 80.1 °F 81.9 °F 64.9 °F 60% 29.99 in 10.0 mi SE 3.5 mph - N/A   Clear
4:53 AM 79.0 °F - 64.9 °F 62% 29.99 in 10.0 mi Calm Calm - N/A   Clear
5:53 AM 78.1 °F - 64.9 °F 64% 30.00 in 10.0 mi SSE 3.5 mph - N/A   Clear
6:53 AM 77.0 °F - 66.0 °F 69% 30.01 in 10.0 mi SSW 4.6 mph - N/A   Clear
7:53 AM 77.0 °F - 66.9 °F 71% 30.02 in 10.0 mi South 4.6 mph - N/A   Clear
8:53 AM 82.9 °F 85.4 °F 66.9 °F 58% 30.03 in 10.0 mi SSW 6.9 mph - N/A   Clear
9:53 AM 87.1 °F 89.2 °F 66.0 °F 49% 30.04 in 10.0 mi SSW 4.6 mph - N/A   Clear
10:53 AM 91.9 °F 94.5 °F 66.0 °F 42% 30.04 in 10.0 mi Variable 3.5 mph - N/A   Clear
11:53 AM 95.0 °F 96.0 °F 63.0 °F 34% 30.03 in 10.0 mi SW 11.5 mph - N/A   Partly Cloudy
12:53 PM 96.1 °F 96.4 °F 61.0 °F 31% 30.01 in 10.0 mi Variable 4.6 mph - N/A   Scattered Clouds
1:53 PM 97.0 °F 98.3 °F 63.0 °F 32% 30.00 in 10.0 mi Calm Calm - N/A   Scattered Clouds
2:53 PM 97.0 °F 97.8 °F 62.1 °F 31% 29.97 in 10.0 mi Variable 3.5 mph - N/A   Scattered Clouds
3:53 PM 98.1 °F 98.1 °F 60.1 °F 28% 29.95 in 10.0 mi WSW 5.8 mph - N/A   Partly Cloudy
4:53 PM 99.0 °F 99.5 °F 61.0 °F 28% 29.93 in 10.0 mi SW 8.1 mph - N/A   Partly Cloudy
5:53 PM 98.1 °F 98.6 °F 61.0 °F 29% 29.92 in 10.0 mi South 8.1 mph - N/A   Partly Cloudy
6:53 PM 96.1 °F 96.0 °F 60.1 °F 30% 29.92 in 10.0 mi South 3.5 mph - N/A   Partly Cloudy
7:53 PM 91.0 °F 91.9 °F 63.0 °F 39% 29.93 in 10.0 mi SE 8.1 mph - N/A   Partly Cloudy
8:53 PM 88.0 °F 88.4 °F 62.1 °F 42% 29.94 in 10.0 mi SE 6.9 mph - N/A   Clear
9:53 PM 87.1 °F 87.5 °F 62.1 °F 43% 29.95 in 10.0 mi ESE 4.6 mph - N/A   Clear
10:53 PM 84.0 °F 84.5 °F 62.1 °F 47% 29.96 in 10.0 mi ESE 6.9 mph - N/A   Clear
11:53 PM 84.9 °F 85.9 °F 63.0 °F 48% 29.96 in 10.0 mi Calm Calm - N/A   Clear